This demonstration page uses our WeatherBlox Daily Observations layout. Learn more.

Left ArrowRight Arrow

Hourly Observations for May 17, 2016

Temp ( °F °C ) Dew Point ( °F °C ) Humidity (%) Winds ( mph kmh ) Pressure ( in mb ) Visibility ( mi km ) Precip ( " mm )
12:12 am 00:12 Cloudy with Light Rain 54 12 52 11 94 94 ESE 14 22 30.00 1016 10 16 0.00 0.00
12:19 am 00:19 Cloudy with Nearby Thunderstorms 55 12.8 52 11.1 90 90 ESE 15 24 30.00 1016 10 16 0.00 0.03
12:34 am 00:34 Cloudy with Light Rain 55 13 52 11 88 88 ESE 14 22 30.00 1016 10 16 0.00 0.00
12:46 am 00:46 Cloudy with Nearby Thunderstorms 55 13 52 11 88 88 ESE 13 20 30.00 1016 10 16 0.00 0.00
12:47 am 00:47 Cloudy with Nearby Thunderstorms 55 13 52 11 88 88 ESE 10 17 30.00 1016 10 16 0.00 0.00
12:54 am 00:54 Cloudy with Thunderstorms 55 13 52 11 88 88 ENE 8 13 30.03 1017 10 16 0.00 0.00
1:18 am 01:18 Cloudy with Thunderstorms 55 13 52 11 88 88 ESE 5 7 30.03 1017 6 10 0.00 0.00
1:28 am 01:28 Cloudy with Nearby Thunderstorms 55 13 52 11 88 88 ESE 9 15 30.03 1017 4 6 0.00 0.00
1:40 am 01:40 Cloudy with Nearby Thunderstorms 55 13 52 11 88 88 SE 14 22 30.03 1017 10 16 0.00 0.00
1:48 am 01:48 Cloudy with Thunderstorms 55 13 52 11 88 88 SE 12 19 30.00 1016 5 8 0.00 0.00
1:52 am 01:52 Cloudy with Strong Thunderstorms 55 12.8 52 11.1 90 90 ESE 13 20 30.01 1016 3 5 0.16 4.06
2:24 am 02:24 Cloudy with Thunderstorms 55 13 52 11 88 88 SE 14 22 30.00 1016 3 4 0.00 0.00
2:31 am 02:31 Cloudy with Thunderstorms 55 12.8 52 11.1 90 90 SSE 13 20 30.00 1016 4 6 0.33 8.38
2:43 am 02:43 Cloudy with Strong Thunderstorms 55 12.8 52 11.1 90 90 SE 14 22 30.00 1016 2 3 0.44 11.18
2:50 am 02:50 Cloudy with Nearby Thunderstorms 55 13 52 11 88 88 SSE 13 20 30.00 1016 3 5 0.00 0.00
2:52 am 02:52 Cloudy with Nearby Thunderstorms 55 12.8 52 11.1 90 90 SE 14 22 30.00 1016 4 6 0.53 13.46
3:15 am 03:15 Cloudy with Thunderstorms 55 12.8 52 11.1 90 90 SSE 13 20 30.00 1016 6 10 0.09 2.29
3:52 am 03:52 Cloudy with Nearby Thunderstorms 55 12.8 52 11.1 90 90 SSE 13 20 29.98 1015 7 11 0.28 7.11
4:05 am 04:05 Cloudy with Heavy Rain 55 12.8 52 11.1 90 90 SE 14 22 29.97 1015 3 5 0.06 1.52
4:52 am 04:52 Cloudy with Nearby Thunderstorms 54 12.2 52 11.1 93 93 SE 15 24 29.97 1015 5 8 0.16 4.06
4:59 am 04:59 Cloudy with Thunderstorms 54 12.2 52 11.1 93 93 SSE 13 20 29.97 1015 5 8 0.01 0.25
5:14 am 05:14 Cloudy with Nearby Thunderstorms 54 12 52 11 94 94 SSE 14 22 29.97 1015 6 10 0.00 0.00
5:21 am 05:21 Cloudy with Light Rain 54 12.2 52 11.1 93 93 SSE 10 17 30.00 1016 10 16 0.03 0.76
5:34 am 05:34 Cloudy with Heavy Rain 54 12 52 11 94 94 SE 10 17 29.97 1015 4 6 0.00 0.00
5:52 am 05:52 Cloudy with Light Rain 54 12.2 52 11.1 93 93 SE 9 15 29.98 1015 5 8 0.11 2.79
6:09 am 06:09 Cloudy with Light Rain 54 12.2 52 11.1 93 93 SE 10 17 29.97 1015 7 11 0.02 0.51
6:40 am 06:40 Cloudy with Heavy Rain 54 12 52 11 94 94 ESE 3 6 30.00 1016 2 3 0.00 0.00
6:52 am 06:52 Cloudy with Rain 54 12.2 52 11.1 93 93 E 5 7 30.00 1016 2 3 0.11 2.79
7:00 am 07:00 Cloudy with Rain 54 12 52 11 94 94 E 3 6 30.00 1016 2 3 0.00 0.00
7:07 am 07:07 Cloudy with Heavy Rain 54 12.2 52 11.1 93 93 E 6 9 30.03 1017 2 3 0.08 2.03
7:24 am 07:24 Cloudy with Rain 55 13 52 11 88 88 ENE 5 7 30.03 1017 3 4 0.00 0.00
7:31 am 07:31 Cloudy with Light Rain 55 12.8 52 11.1 90 90 ENE 6 9 30.03 1017 5 8 0.16 4.06
7:52 am 07:52 Cloudy with Light Rain 55 12.8 52 11.1 90 90 NE 9 15 30.01 1016 6 10 0.17 4.32
8:52 am 08:52 Cloudy with Light Rain 53 11.7 50 10 89 89 NE 15 24 30.01 1016 7 11 0.04 1.02
9:52 am 09:52 Cloudy with Light Rain 52 11.1 49 9.4 89 89 ENE 15 24 30.00 1016 10 16 0.03 0.76
10:52 am 10:52 Cloudy with Light Rain 51 10.6 48 8.9 89 89 NNE 14 22 30.04 1017 8 13 0.00 0.03
11:07 am 11:07 Cloudy with Rain 51 10.6 48 8.9 89 89 NE 15 24 30.09 1019 2 3 0.03 0.76
11:30 am 11:30 Cloudy with Light Rain 52 11 48 9 88 88 NNE 14 22 30.06 1018 6 10 0.00 0.00
11:52 am 11:52 Cloudy with Light Rain 52 11.1 49 9.4 89 89 NNE 14 22 30.06 1018 3 5 0.09 2.29
12:16 pm 12:16 Cloudy with Light Rain 51 10.6 49 9.4 92 92 NNE 14 22 30.09 1019 2 3 0.04 1.02
12:22 pm 12:22 Cloudy with Light Rain 52 11 48 9 88 88 NNE 15 24 30.06 1018 3 5 0.00 0.00
12:36 pm 12:36 Cloudy with Light Rain 52 11 48 9 88 88 NE 15 24 30.06 1018 4 6 0.00 0.00
12:44 pm 12:44 Cloudy with Light Rain 52 11 48 9 88 88 NE 12 19 30.06 1018 5 8 0.00 0.00
12:52 pm 12:52 Cloudy with Light Rain 52 11.1 49 9.4 89 89 NE 13 20 30.06 1018 8 13 0.05 1.27
1:52 pm 13:52 Cloudy 53 11.7 48 8.9 83 83 NE 15 24 30.07 1018 10 16 0.00 0.03
2:16 pm 14:16 Cloudy 53 11.7 49 9.4 86 86 NE 16 26 30.09 1019 10 16 0.00 0.00
2:34 pm 14:34 Cloudy 54 12 48 9 82 82 NNE 13 20 30.09 1019 10 16 0.00 0.00
2:52 pm 14:52 Cloudy 53 11.7 49 9.4 86 86 N 14 22 30.09 1019 10 16 0.00 0.00
3:52 pm 15:52 Cloudy 52 11.1 48 8.9 86 86 NNE 13 20 30.09 1019 10 16 0.00 0.00
4:52 pm 16:52 Cloudy 52 11.1 48 8.9 86 86 ENE 13 20 30.09 1019 9 14 0.00 0.03
5:45 pm 17:45 Cloudy 53 11.7 47 8.3 80 80 NE 16 26 30.09 1019 10 16 0.00 0.00
5:52 pm 17:52 Cloudy 53 11.7 47 8.3 80 80 NE 20 31 30.09 1019 10 16 0.00 0.00
6:52 pm 18:52 Cloudy 52 11.1 47 8.3 83 83 NNE 14 22 30.12 1020 10 16 0.00 0.00
7:52 pm 19:52 Cloudy 52 11.1 47 8.3 83 83 NNE 13 20 30.14 1021 10 16 0.00 0.00
8:37 pm 20:37 Cloudy 52 11.1 47 8.3 83 83 NNE 13 20 30.18 1022 10 16 0.00 0.00
8:48 pm 20:48 Cloudy 52 11 46 8 82 82 NNE 14 22 30.18 1022 9 14 0.00 0.00
8:52 pm 20:52 Cloudy 51 10.6 47 8.3 86 86 NNE 12 19 30.15 1021 9 14 0.00 0.00
9:05 pm 21:05 Cloudy 51 10.6 47 8.3 86 86 NNE 12 19 30.18 1022 9 14 0.00 0.00
9:27 pm 21:27 Cloudy 51 10.6 47 8.3 86 86 NNE 13 20 30.21 1023 10 16 0.00 0.00
9:52 pm 21:52 Cloudy 51 10.6 47 8.3 86 86 NNE 12 19 30.18 1022 10 16 0.00 0.00
10:52 pm 22:52 Cloudy 51 10.6 46 7.8 83 83 NNE 13 20 30.19 1022 10 16 0.00 0.00
11:52 pm 23:52 Cloudy 51 10.6 46 7.8 83 83 NE 8 13 30.18 1022 10 16 0.00 0.00

Powered by AerisWeather